Regional Weather Roundup
Issued by NWS

Home | Current Version | Previous Version | Graphics & Text | Print | Product List | Glossary On
Versions: 1 2 3 4 5 6 7 8 9 10 11 12 13 14 15 16 17 18 19 20 21 22 23 24 25 26 27 28 29 30 31 32 33 34 35 36 37 38 39 40 41 42 43 44 45 46 47 48 49 50
000
ASUS43 KOAX 171910
RWRNE

WEATHER ROUNDUP FOR NEBRASKA
NATIONAL WEATHER SERVICE OMAHA NE
100 PM CST TUE JAN 17 2017

NOTES: SATELLITE DATA IS BEING USED TO AUGMENT CLOUD COVER ABOVE
       12000 FEET.
       "FAIR" INDICATES FEW OR NO CLOUDS BELOW 12,000 FEET WITH NO
       SIGNIFICANT WEATHER AND/OR OBSTRUCTIONS TO VISIBILITY.

  * THESE STATIONS DO NOT REPORT WEATHER SUCH AS RAIN...SNOW OR FOG.

NEZ001>004-019>022-054>056-172000-
NEBRASKA PANHANDLE

CITY           SKY/WX    TMP DP  RH WIND       PRES   REMARKS
SCOTTSBLUFF    SUNNY     40  18  41 CALM      29.99F
ALLIANCE       SUNNY     41  13  31 W13       29.97F
CHADRON        CLOUDY    28  16  60 S3        29.98F
KIMBALL        SUNNY     42  31  64 SW9       30.00F
SIDNEY         SUNNY     41  24  51 SW16      30.01F
$$

NEZ057>060-069>072-079>082-172000-
SOUTHWEST NEBRASKA

CITY           SKY/WX    TMP DP  RH WIND       PRES   REMARKS
NORTH PLATTE   SUNNY     41  25  53 W9        30.05F
IMPERIAL       SUNNY     39  25  57 W5        30.05F
LEXINGTON      SUNNY     39  28  64 NW6       30.06F
MCCOOK         SUNNY     40  29  64 W8        30.07F WCI  34
OGALLALA       SUNNY     37  27  66 SW7       30.04F WCI  32
$$

NEZ005>010-023>029-035>040-094-172000-
NORTH CENTRAL NEBRASKA

CITY           SKY/WX    TMP DP  RH WIND       PRES   REMARKS
VALENTINE      SUNNY     49  13  23 W14       29.97F
AINSWORTH      SUNNY     46  25  44 SW9       29.99F
BROKEN BOW     SUNNY     37  27  67 W7        30.03F WCI  32
O`NEILL        SUNNY     38  32  80 SW3       30.02F
ORD            SUNNY     34  28  79 SW5       30.04F WCI  30
THEDFORD       SUNNY     48  21  33 SW8       30.01F
$$

NEZ041-046>049-061>064-073>077-083>087-172000-
SOUTH CENTRAL NEBRASKA

CITY           SKY/WX    TMP DP  RH WIND       PRES   REMARKS
GRAND ISLAND   SUNNY     33  30  88 W8        30.06F WCI  26
AURORA         SUNNY     32  30  92 CALM      30.06F
HASTINGS       SUNNY     34  28  79 W8        30.07F WCI  27
HEBRON         SUNNY     33  29  85 NW5       30.09F WCI  28
HOLDREGE       SUNNY     36  30  80 W5        30.06F WCI  32
KEARNEY *      SUNNY     36  28  75 CALM      30.06F
YORK           SUNNY     32  28  86 MISG      30.07F
$$

NEZ011>018-030>034-042>045-172000-
NORTHEAST NEBRASKA

CITY           SKY/WX    TMP DP  RH WIND       PRES   REMARKS
NORFOLK        SUNNY     29  24  82 SW6       30.04F WCI  23
ALBION         SUNNY     32  28  85 W7        30.05F FOG     WCI  26
BLAIR          CLOUDY    29  28  96 SW5       30.05F FOG     WCI  23
FREMONT        SUNNY     31  27  82 W9        30.07S WCI  23
TEKAMAH        CLOUDY    30  25  81 W6        30.08F WCI  24
WAYNE          SUNNY     30  27  86 CALM      30.05F
$$

NEZ050>053-065>068-078-088>093-172000-
SOUTHEAST NEBRASKA

CITY           SKY/WX    TMP DP  RH WIND       PRES   REMARKS
LINCOLN        SUNNY     33  27  78 W6        30.09F WCI  28
OMAHA EPPLEY   CLOUDY    30  25  81 W5        30.07F WCI  25
BEATRICE       MOSUNNY   34  30  86 W5        30.08F WCI  30
FALLS CITY     CLOUDY    34  32  92 W8        30.09S WCI  27
NEBRASKA CITY  CLOUDY    33  33 100 W8        30.07F FOG     WCI  25
PLATTSMOUTH    CLOUDY    31  28  89 W8        30.06F FOG     WCI  23
$$

NEZ044-045-051>053-067-172000-
OMAHA AREA

CITY           SKY/WX    TMP DP  RH WIND       PRES   REMARKS
OMAHA EPPLEY   CLOUDY    30  25  81 W5        30.07F WCI  25
BLAIR          CLOUDY    29  28  96 SW5       30.05F FOG     WCI  23
FREMONT        SUNNY     31  27  82 W9        30.07S WCI  23
MILLARD        CLOUDY    32  29  88 W6        30.08F WCI  26
OFFUTT AFB     CLOUDY    31  31  99 W7        30.07F WCI  24
PLATTSMOUTH    CLOUDY    31  28  89 W8        30.06F FOG     WCI  23
WAHOO          FAIR      32  27  83 W5        30.07F WCI  27
$$



USA.gov is the U.S. government's official web portal to all federal, state and local government web resources and services.